CZ-6A DEB, 56611

Orbit data source: Space-Track

CZ-6A DEB, 56611 is space debris in SSO originally from a launch on Fri, 11 Nov 2022 UTC launched from the Taiyaun Space Center, China (TSC). Debris objects in space refer to the collection of defunct objects orbiting the Earth. Examples of debris include non-operational satellites, rocket bodies, and fragments generated from explosions, collisions, or faulty payload assembly.

Loading next visibility...
Identifier
56611, 2022-151AEK
Orbit
SSO
Country
Flag of CNCN / PRC
Related business
Manufacturer
SAST
Mission
Spacecraft
Bus & Motor
Unknown
Mass
Unknown
Launch date (UTC)
2022-11-11 (3 years ago)
Launch vehicle
Unknown
Launch site
Taiyaun Space Center, China (TSC)
Object type
Payload
Rocket body
Debris
Shape & HBR
Unknown shape, 0.1 m
Radar Cross Section
Small (<0.1 m²)

Expand to show TLE details & history
Last TLE update: 1 day ago

TLE from 1 day ago
0 CZ-6A DEB
1 56611U 22151AEK 26129.44044734  .00000148  00000-0  10591-3 0  9992
2 56611  98.8230 127.9253 0043444  85.8652 274.7483 14.10655441156483
Epoch: 2026-05-09T10:34Z
TLE epoch observation values (Epoch: 2026-05-09T10:34:14.650Z)
Latitude
0.00003°
Longitude
102.10641°
Altitude
857.561 km
Speed
7.425 km/s
True Right ascension
08h 31m 42s
True Declination
0° 00' 00"
Sunlit
Object was in daylight at epoch
Visualization orbit readout
Latitude
Unknown
Longitude
Unknown
Altitude
Unknown
Speed
Unknown
Apparent Right ascension
Unknown
Apparent Declination
Unknown
Sunlit
N/A
Visualization observer readout
Local Sidereal Time
05:29:23
Azimuth
Unknown
Elevation
Unknown
Doppler factor
Unknown
Orbital elements
Apogee altitude
885.727 km
Perigee altitude
822.886 km
Semi-major axis
7,232.443 km
Eccentricity
0.00434
Inclination
98.823°
RAAN
127.9253°
Arg. of periapsis
85.8652°
True anomaly
274.25196°
Mean anomaly
274.7483°
Eccentric anomaly
274.50015°
Mean motion
3.52871 °/min
Orbital period
102.02 mins
BSTAR
0.00010591
Loading maneuver chart data...
Computing Atmospheric mass density...
Loading historical data...
Loading historical data...
Loading historical data...
Loading historical data...
Loading historical data...
Loading historical data...
Loading historical data...

Documentation

Showing up to 5 results
|